SPACEBEE-100 (48883 NORAD) Tracking and Keplerian Element Data

This shows tracking and keplerian element data for the satellite.

Feedback or suggestion? Click here.




ElementValue
Catalog48883
NameSPACEBEE-100
Epoch Orbit1286
Epoch Day261.9337733
Epoch Year2021
RAAN29.451
Inclination97.5233
Eccentricity0.0008299
Argument of Perigee328.621
Mean Anonmoly31.4524
Mean Motion15.12084637
Decay Rate1.219E-05
L11 48883U 21059E 21261.93377330 .00001219 00000-0 74579-4 0 9994
L22 48883 97.5233 29.4510 0008299 328.6210 31.4524 15.12084637 12866

Live tracking and technical data element details for SPACEBEE-100 (NORAD 48883). SPACEBEE-100 can be tracked NOW for your location showing map with azimuth and elevation plus other details from your city location.

Track the satellite on the map from your city or location and see movement details for azimuth, elevation, latitude, longitude, range, height, and movement on the map or in text.







IsCatalogInMostPopularTable: catalog: 48883, numindb: 13
Update: records affected: 1



GetName: 48883 SPACEBEE-100

Hit Count: updated at: Fri, 24 Sep 2021 17:18:20 GMT